COSMOS 894 DEB, 45506

Orbit data source: Space-Track

COSMOS 894 DEB, 45506 is space debris in LEO originally from a launch on Mon, 21 Feb 1977 UTC launched from the Plesetsk Missile And Space Complex (PKMTR). Debris objects in space refer to the collection of defunct objects orbiting the Earth. Examples of debris include non-operational satellites, rocket bodies, and fragments generated from explosions, collisions, or faulty payload assembly.

Loading next visibility...
Identifier
45506, 1977-013C
Orbit
LEO
Last TLE update
15 hours ago
Origin
Manufacturer
Unknown
Mission
Spacecraft
Bus & Motor
Unknown
Mass
Unknown
Launch date (UTC)
1977-02-21 (48 years ago)
Launch vehicle
Unknown
Launch site
Plesetsk Missile And Space Complex (PKMTR)
Object type
Payload
Rocket body
Debris
Shape & HBR
Unknown
Radar Cross Section
Small (<0.1 m²)

Expand to show TLE details & history

TLE from 15 hours ago
0 COSMOS 894 DEB
1 45506U 77013C   25129.15713821  .00000866  00000-0  83333-3 0  9998
2 45506  82.9451  25.7037 0026102 217.8395 142.0929 13.78870405557312
Epoch: 2025-05-09T03:46Z
Definitive object data (Epoch: 2025-05-09T03:46:16.741Z)
Latitude
-0.00004°
Longitude
101.91663°
Altitude
985.952 km
Speed
7.351 km/s
True Right ascension
01h 42m 48s
True Declination
0° 00' 00"
Sunlit
Object was in daylight at TLE epoch
Visualization TLE readout
Latitude
-82.59033°
Longitude
-7.35086°
Altitude
984.344 km
Speed
7.365 km/s
Apparent Right ascension
15h 40m 15s
Apparent Declination
-63° 51' 01"
Sunlit
Object is in daylight
Visualization observer readout
Local Sidereal Time
03:10:44
Azimuth
187.9° SSW
Elevation
-65.673°
Doppler factor
1
Orbital elements
Apogee altitude
984.206 km
Perigee altitude
945.872 km
Semi-major axis
7,343.176 km
Eccentricity
0.0026102
Inclination
82.9451°
RAAN
25.7037°
Arg. of periapsis
217.8395°
True anomaly
142.27619°
Mean anomaly
142.0929°
Eccentric anomaly
142.18459°
Mean motion
3.44919 °/min
BSTAR
0.00083333
Orbital period
104.37 mins
Loading maneuver chart data...
Loading SW <> Apogee altitude chart data...
Loading historical data...
Loading historical data...
Loading historical data...
Loading historical data...
Loading historical data...
Loading historical data...
Loading historical data...
Other satellites on launch #13 in the year 1977 (1977-02-21 UTC)

COSMOS 894 DEB Visibility forecast

Observer location: undefined°, undefined°

Span
Click to sort rows by Start time (UTC) header in descending order
Start Az.
Max El. time (UTC)
Max El. Az.
Max El.
End time (UTC)
End Az.
4 mins2025-05-09 19:37:50.546Z273.003° WNW2025-05-09 19:39:50.546Z292.657° NW12.835°2025-05-09 19:41:50.546Z312.66° NW
10 mins2025-05-10 04:44:50.546Z359.45° N2025-05-10 04:49:50.546Z89.871° E43.334°2025-05-10 04:54:50.546Z164.292° S
5 mins2025-05-10 06:31:50.546Z303.989° NW2025-05-10 06:33:50.546Z282.846° WNW15.211°2025-05-10 06:36:50.546Z250.885° W
8 mins2025-05-10 16:28:50.546Z124.008° SE2025-05-10 16:32:50.546Z77.092° E20.723°2025-05-10 16:36:50.546Z36.559° NE
10 mins2025-05-10 18:12:50.546Z211.317° SW2025-05-10 18:16:50.546Z272.724° WNW38.385°2025-05-10 18:22:50.546Z356.442° N
|